Vorticity
51 47 42 33 26 24 20 6 -5 -3 7 11 8 7 9 10 8 5 2 1 -1 2 8 12 11 6 3 5 8 6 5 7 6 5 9 9 5 5 7 9 10 10
38 42 45 42 35 28 27 24 12 -3 -7 0 5 2 -1 2 7 11 12 8 2 -3 -3 1 5 5 7 11 13 9 5 6 7 6 8 10 9 6 7 10 8 8
23 29 37 44 46 39 31 27 26 19 5 -1 3 4 -0 -4 -5 -1 6 12 14 12 6 4 5 7 10 10 9 8 6 7 9 9 7 6 7 8 9 9 8 6
27 28 31 36 43 48 45 35 28 24 18 9 4 6 7 5 3 1 2 3 6 8 7 6 5 7 12 12 9 5 2 3 5 9 10 6 4 10 11 7 6 6
22 23 25 26 30 37 45 50 48 40 33 22 13 12 16 19 20 18 15 11 8 6 5 2 -2 -1 5 12 16 12 7 5 -0 -2 3 7 8 11 12 10 7 5
12 13 15 16 18 23 28 37 45 50 51 46 36 28 23 23 24 24 22 19 15 13 12 11 6 -0 -3 4 17 21 19 21 16 4 -3 1 11 11 5 9 12 5
14 13 13 12 12 13 16 19 23 29 36 41 44 41 34 29 26 23 23 21 19 16 14 14 17 16 4 -4 6 16 18 22 25 21 7 -1 7 9 -3 -1 10 6
16 15 15 15 14 13 15 18 20 22 24 26 31 34 34 33 30 27 26 25 24 22 18 13 15 22 17 -0 -5 4 12 15 18 22 21 11 7 7 -5 -9 5 9
16 16 15 15 16 17 18 19 20 22 23 23 24 25 26 27 27 27 27 27 27 27 25 20 13 14 19 13 2 -1 5 12 14 14 20 22 17 13 5 -5 -1 8
13 13 14 14 13 13 13 13 15 16 16 17 19 21 23 25 27 29 30 31 30 28 25 21 15 10 11 15 15 10 7 9 12 11 12 18 18 16 15 5 -5 1
10 10 11 12 13 13 11 8 7 7 9 10 11 12 14 16 18 22 26 31 34 35 33 29 25 17 9 7 9 12 13 11 12 11 8 10 12 12 13 10 3 2
6 7 8 9 11 12 13 11 8 6 5 5 5 6 7 8 10 12 16 20 25 30 34 36 36 33 27 20 12 8 8 10 13 14 10 7 9 11 11 11 11 7
6 6 7 8 9 10 11 11 11 9 7 5 4 3 3 4 6 8 10 13 16 19 23 26 29 31 33 34 32 26 19 14 14 15 14 10 8 10 10 8 9 7
8 9 7 7 8 8 8 8 9 9 7 7 6 4 4 4 4 6 8 9 12 15 18 19 20 21 24 25 29 33 32 28 23 19 19 18 12 8 7 6 7 8
9 8 8 9 8 8 8 7 7 8 7 7 6 4 3 3 3 5 7 8 11 14 17 18 18 18 19 21 22 25 29 31 30 27 26 27 21 9 6 9 9 10
8 8 8 9 8 9 10 8 7 7 7 7 6 6 5 4 5 6 8 11 13 17 20 20 21 21 22 24 25 24 27 29 30 32 30 33 33 18 5 9 11 11
9 9 9 9 9 10 10 8 7 6 7 7 7 6 5 6 8 10 12 16 18 23 25 23 23 24 23 26 29 30 32 32 32 34 32 33 40 34 14 6 10 10
11 10 10 10 11 13 11 8 6 6 7 8 7 6 7 8 11 13 17 25 30 29 24 21 22 24 27 32 35 34 35 37 36 38 38 34 36 44 33 9 6 10
11 11 12 13 14 15 12 7 7 9 9 7 7 7 8 9 13 20 29 35 33 24 20 21 21 23 26 22 17 17 22 30 33 32 38 40 35 44 46 21 7 12
11 12 14 17 17 14 10 8 10 11 9 8 9 9 10 15 23 33 38 32 21 16 18 17 15 20 20 7 5 15 19 24 31 28 32 42 37 37 47 33 13 13
13 17 19 19 16 11 10 11 9 7 7 9 11 14 19 29 35 35 30 20 14 14 12 11 18 25 17 3 8 24 26 29 41 40 37 44 42 35 43 40 22 16
17 22 20 16 12 10 11 9 6 9 13 16 21 27 31 34 32 25 18 14 13 10 9 18 29 22 8 7 18 25 25 26 34 41 44 48 44 35 34 37 29 21
21 20 15 11 10 8 6 7 12 20 25 28 33 33 29 27 22 16 14 13 10 9 17 28 27 11 5 17 27 24 20 19 26 42 46 37 28 23 22 28 31 28
19 15 11 9 7 6 10 19 27 29 29 30 29 24 21 19 18 18 19 15 11 17 28 27 16 9 15 23 25 22 18 16 23 33 27 12 10 14 16 22 26 23
15 11 8 6 8 16 26 29 26 24 23 22 19 19 19 18 20 22 20 19 25 31 29 21 12 13 20 22 20 19 19 18 23 24 14 6 8 8 10 20 24 24
11 7 6 12 21 29 28 22 21 23 22 20 19 19 19 18 16 13 15 29 42 33 17 14 16 16 19 20 16 17 22 26 27 25 19 16 14 7 7 13 14 17
Height
5355 5357 5359 5362 5365 5370 5374 5377 5380 5383 5386 5388 5390 5392 5393 5394 5396 5397 5400 5403 5405 5408 5411 5413 5415 5417 5419 5420 5422 5424 5427 5430 5433 5435 5437 5439 5440 5441 5442 5444 5444 5446
5347 5346 5347 5350 5353 5357 5360 5364 5367 5369 5372 5375 5377 5379 5381 5382 5383 5385 5387 5389 5391 5395 5397 5400 5402 5405 5406 5408 5410 5413 5415 5418 5422 5424 5427 5429 5430 5431 5433 5435 5435 5437
5341 5340 5340 5342 5344 5346 5349 5351 5354 5357 5359 5362 5363 5366 5368 5370 5371 5373 5375 5377 5379 5382 5384 5386 5389 5392 5394 5396 5398 5400 5404 5407 5411 5413 5416 5418 5420 5421 5424 5425 5426 5428
5335 5335 5335 5335 5335 5336 5338 5340 5343 5345 5348 5350 5352 5353 5355 5357 5359 5361 5364 5365 5368 5371 5373 5374 5377 5380 5382 5384 5386 5389 5392 5395 5399 5402 5405 5408 5410 5412 5414 5415 5417 5420
5330 5329 5329 5329 5328 5328 5329 5330 5332 5334 5337 5339 5341 5342 5343 5345 5347 5349 5351 5353 5356 5359 5361 5364 5366 5368 5371 5373 5374 5377 5381 5384 5387 5390 5394 5397 5400 5403 5404 5406 5408 5411
5326 5325 5324 5323 5323 5322 5322 5322 5323 5324 5326 5328 5330 5331 5332 5333 5335 5337 5339 5341 5344 5347 5350 5353 5355 5358 5360 5362 5363 5366 5369 5372 5375 5378 5382 5387 5389 5393 5395 5397 5399 5402
5322 5321 5320 5319 5318 5318 5318 5317 5317 5317 5318 5319 5320 5321 5322 5323 5325 5326 5328 5330 5332 5336 5339 5341 5344 5347 5349 5350 5352 5355 5358 5360 5363 5366 5371 5375 5378 5382 5386 5387 5389 5393
5317 5316 5315 5314 5314 5313 5313 5313 5312 5312 5312 5312 5313 5313 5313 5314 5316 5316 5318 5319 5322 5325 5327 5329 5332 5334 5337 5338 5341 5344 5346 5348 5350 5353 5358 5362 5366 5371 5376 5377 5379 5383
5312 5311 5310 5309 5309 5309 5308 5308 5307 5307 5307 5306 5306 5306 5306 5306 5307 5307 5308 5309 5311 5313 5315 5317 5319 5321 5323 5326 5329 5332 5334 5336 5339 5341 5345 5349 5354 5359 5364 5366 5368 5372
5308 5306 5305 5304 5304 5303 5303 5302 5301 5301 5301 5300 5300 5300 5300 5299 5299 5299 5299 5300 5300 5301 5303 5304 5306 5308 5310 5313 5315 5318 5321 5324 5327 5329 5332 5336 5341 5347 5351 5354 5357 5361
5302 5301 5300 5299 5298 5298 5297 5296 5295 5295 5294 5294 5294 5294 5293 5293 5293 5292 5292 5291 5291 5291 5291 5293 5294 5296 5297 5300 5302 5305 5307 5311 5315 5317 5320 5323 5327 5333 5339 5342 5346 5351
5297 5296 5295 5294 5293 5292 5291 5290 5289 5288 5287 5287 5287 5286 5286 5286 5285 5285 5284 5283 5283 5282 5282 5282 5283 5283 5285 5287 5289 5291 5294 5297 5301 5305 5308 5311 5315 5321 5326 5330 5335 5341
5292 5291 5289 5288 5287 5286 5285 5284 5283 5282 5281 5280 5279 5278 5278 5277 5277 5275 5274 5274 5273 5273 5273 5272 5272 5272 5273 5274 5276 5278 5280 5283 5286 5290 5294 5299 5303 5307 5312 5318 5324 5330
5286 5285 5284 5283 5281 5280 5279 5278 5276 5275 5274 5273 5272 5271 5270 5269 5268 5266 5265 5264 5263 5263 5262 5261 5261 5262 5262 5263 5263 5264 5266 5269 5272 5276 5280 5285 5291 5295 5300 5306 5312 5318
5279 5278 5277 5276 5275 5274 5273 5271 5270 5268 5267 5266 5265 5264 5263 5261 5259 5257 5256 5255 5253 5252 5252 5251 5250 5250 5250 5250 5251 5251 5253 5255 5259 5262 5266 5272 5278 5283 5288 5294 5301 5307
5272 5271 5271 5270 5268 5267 5266 5264 5263 5261 5259 5258 5257 5256 5254 5253 5251 5249 5247 5245 5244 5242 5241 5240 5240 5240 5239 5239 5238 5239 5240 5242 5246 5250 5254 5258 5265 5271 5277 5284 5290 5297
5265 5264 5263 5263 5261 5260 5258 5257 5255 5254 5252 5250 5249 5247 5245 5243 5242 5240 5238 5236 5234 5233 5232 5230 5230 5230 5230 5229 5228 5229 5229 5231 5234 5238 5242 5246 5251 5259 5267 5274 5281 5288
5259 5258 5257 5256 5254 5252 5251 5249 5248 5247 5245 5243 5241 5239 5237 5235 5233 5231 5229 5227 5225 5224 5223 5222 5222 5222 5222 5221 5221 5221 5221 5222 5224 5227 5230 5235 5240 5247 5257 5265 5271 5278
5252 5251 5250 5248 5247 5245 5244 5242 5241 5239 5237 5235 5234 5232 5229 5227 5225 5223 5221 5219 5217 5217 5216 5216 5216 5216 5215 5215 5215 5215 5214 5214 5215 5217 5220 5225 5231 5238 5247 5255 5262 5269
5246 5244 5243 5241 5240 5239 5237 5235 5234 5232 5230 5228 5226 5224 5221 5219 5216 5214 5213 5212 5211 5210 5210 5210 5211 5210 5210 5210 5209 5210 5209 5207 5208 5210 5212 5216 5222 5229 5237 5245 5253 5260
5239 5238 5237 5235 5234 5233 5231 5229 5227 5225 5223 5220 5218 5215 5213 5211 5209 5207 5206 5206 5205 5205 5205 5205 5206 5205 5205 5205 5205 5204 5204 5202 5203 5204 5206 5210 5216 5223 5230 5238 5245 5253
5234 5233 5231 5230 5229 5227 5225 5223 5221 5219 5216 5213 5211 5208 5206 5205 5203 5202 5202 5201 5201 5200 5199 5200 5200 5200 5201 5201 5200 5200 5200 5199 5200 5201 5202 5206 5213 5220 5227 5233 5240 5247
5229 5228 5227 5225 5224 5222 5220 5217 5215 5212 5209 5207 5205 5203 5201 5200 5199 5198 5197 5197 5196 5196 5195 5195 5196 5197 5197 5197 5197 5197 5197 5198 5199 5200 5202 5206 5213 5219 5225 5231 5236 5243
5225 5224 5222 5220 5218 5216 5214 5211 5209 5206 5204 5202 5201 5199 5198 5196 5195 5194 5193 5193 5192 5192 5191 5192 5193 5194 5194 5194 5194 5195 5195 5197 5199 5201 5203 5208 5213 5218 5224 5228 5233 5239
5221 5220 5218 5216 5214 5211 5209 5206 5204 5202 5201 5199 5197 5196 5194 5193 5192 5191 5190 5189 5188 5188 5188 5190 5191 5191 5192 5192 5193 5194 5194 5196 5199 5201 5204 5208 5212 5216 5221 5225 5230 5235
5217 5216 5214 5212 5209 5207 5204 5202 5201 5199 5198 5196 5195 5194 5192 5191 5190 5188 5187 5186 5185 5186 5187 5188 5189 5190 5190 5191 5192 5193 5194 5196 5198 5200 5203 5207 5210 5214 5218 5222 5227 5232